Showing default

SES MPOWER-A F2, 54756

Orbit data source: Space-Track

SES MPOWER-A F2, 54756 is a payload satellite owned by O3B SES (LU) that was launched on Fri, 16 Dec 2022 UTC via an FALCON 9 launch vehicle from the Air Force Eastern Test Range (AFETR). Payload-class satellites include a variety of spacecraft equipped with specific instruments for various scientific and technological missions. These include communications satellites like Starlink; space stations such as the ISS; scientific satellites like the Hubble; Earth observation satellites from companies like Planet Labs, Umbra, and HawkEye 360; GPS; miniature CubeSats for education and research; and military/defense satellites.

Loading next visibility...
Identifier
54756, 2022-174B
Orbit
Active
Country
Flag of LULU / SES
Related business
Manufacturer
Boeing/ES
Mission
Partially operational Commercial Communications
Bus & Motor
702X, PPS5000
Mass
1,700 kg wet, 1,700 kg dry
Launch date (UTC)
2022-12-16 (4 years ago)
Launch vehicle
FALCON 9
Launch site
Air Force Eastern Test Range (AFETR)
Object type
Payload
Rocket body
Debris
Shape & HBR
Box + 2 Pan, 13.5 m
Radar Cross Section
27.396 m², Large (>1 m²)

Expand to show TLE details & history
Last TLE update: 2 days ago

TLE from 2 days ago
0 SES MPOWER-A F2
1 54756U 22174B   26171.30840233 -.00000024  00000-0  00000+0 0  9999
2 54756   0.0477 341.0694 0005858 104.0711 274.9240  5.00115060 65607
Epoch: 2026-06-20T07:24Z
TLE epoch observation values (Epoch: 2026-06-20T07:24:05.961Z)
Latitude
0.01556°
Longitude
-19.54977°
Altitude
8,063.657 km
Speed
5.255 km/s
True Right ascension
23h 59m 59s
True Declination
0° 00' 56"
Sunlit
Object was in daylight at epoch
Visualization orbit readout
Latitude
Unknown
Longitude
Unknown
Altitude
Unknown
Speed
Unknown
Apparent Right ascension
Unknown
Apparent Declination
Unknown
Sunlit
N/A
Visualization observer readout
Local Sidereal Time
21:30:55
Azimuth
Unknown
Elevation
Unknown
Doppler factor
Unknown
Orbital elements
Apogee altitude
8,077.42 km
Perigee altitude
8,060.494 km
Semi-major axis
14,447.094 km
Eccentricity
0.00059
Inclination
0.0477°
RAAN
341.0694°
Arg. of periapsis
104.0711°
True anomaly
274.85712°
Mean anomaly
274.924°
Eccentric anomaly
274.89056°
Mean motion
1.24989 °/min
Orbital period
288.02 mins
BSTAR
0
Loading maneuver chart data...
Computing Atmospheric mass density...
Loading historical data...
Loading historical data...
Loading historical data...
Loading historical data...
Loading historical data...
Loading historical data...
Loading historical data...
Other satellites on launch #174 in the year 2022 (2022-12-16 UTC)

Documentation

Showing up to 5 results
|